Preview of NWS' New Version of Forecast
This preview is not operational and should not be used for support decisions.

Regional Weather Roundup (RWR)

Issued by National Weather Service (NWS)

                            
000
ASUS44 KJAN 212110
RWRMS 

MISSISSIPPI HOURLY WEATHER ROUNDUP
NATIONAL WEATHER SERVICE JACKSON MS
400 PM CDT SAT SEP 21 2019

NOTE: "FAIR: INDICATES FEW OR NO CLOUDS BELOW 12,000 FEET WITH NO
SIGNIFICANT WEATHER AND/OR OBSTRUCTIONS TO VISIBILITY.

MSZ001>002-007>008-010>013-018>021-025>028-034>036-212200-
NORTHWEST MISSISSIPPI
  
CITY           SKY/WX    TMP DP  RH WIND       PRES   REMARKS
BATESVILLE     MOCLDY    86  59  39 SE5       30.12F                  
CLARKSDALE       N/A     90  63  40 SE10      30.11F HX  90           
CLEVELAND      FAIR      90  58  34 S9        30.10F                  
GREENWOOD      FAIR      89  57  33 SE6       30.11F                  
GREENVILLE     FAIR      92  56  29 S9        30.08F HX  90           
OLIVE BRANCH   PTSUNNY   88  57  35 S12       30.12F                  
OXFORD         FAIR      88  54  31 SE9       30.15F                  
TUNICA           N/A     86  59  39 SE10      30.12F                  
WINONA         MOCLDY    87  58  38 SE8       30.12F                  
$$

MSZ003>006-009-014>017-022>024-029>033-037>039-212200-
NORTHEAST MISSISSIPPI
  
CITY           SKY/WX    TMP DP  RH WIND       PRES   REMARKS
ABERDEEN       FAIR      88  70  55 SE10      30.16F HX  92           
COLUMBUS AFB   FAIR      87  57  35 S6        30.14F                  
CORINTH        FAIR      90  55  31 S9G17     30.15F                  
GOLDN TRIANGLE PTSUNNY   88  61  40 E8        30.15F                  
STARKVILLE     MOCLDY    88  55  33 NE7       30.16F                  
TUPELO         FAIR      89  56  32 SE6       30.15F                  
$$

MSZ040-058-212200-
CENTRAL MISSISSIPPI
  
CITY           SKY/WX    TMP DP  RH WIND       PRES   REMARKS
JACKSON INTL   FAIR      90  61  37 E6        30.11F HX  90           
JACKSON HAWKNS FAIR      90  61  37 E3        30.11F HX  90           
MADISON        FAIR      88  61  40 E6        30.13F                  
MERIDIAN KEY   FAIR      91  60  35 VRB5      30.12F HX  90           
MERIDIAN NAS   FAIR      90  56  31 VRB7      30.14F                  
RAYMOND          N/A     91  66  43 SE12      30.10F HX  94           
VICKSBURG VKS  PTCLDY    90  64  43 CALM      30.09F HX  91           
$$

MSZ059>079-212200-
SOUTH MISSISSIPPI
  
CITY           SKY/WX    TMP DP  RH WIND       PRES   REMARKS
BROOKHAVEN     CLOUDY    86  66  51 CALM      30.13S                  
HATTIESBURG    PTSUNNY   88  64  44 SE9       30.12F                  
LAUREL         CLOUDY    90  62  39 SE9       30.12F HX  90           
MCCOMB         CLOUDY    76  72  87 SE9       30.13R                  
NATCHEZ        FAIR      91  68  46 SW6       30.09F HX  95           
PINE BELT      FAIR      86  66  51 E8        30.13F                  
$$

MSZ080>082-212200-
COASTAL MISSISSIPPI
  
CITY           SKY/WX    TMP DP  RH WIND       PRES   REMARKS
BILOXI         CLOUDY    84  70  63 SE17      30.12F                  
PASCAGOULA     CLOUDY    86  68  54 SE13      30.12F                  
GULFPORT       CLOUDY    83  71  67 SE15      30.11F                  
$$

LAZ007>009-015>016-023>026-212200-
NORTHEAST LOUISIANA
  
CITY           SKY/WX    TMP DP  RH WIND       PRES   REMARKS
BASTROP        CLOUDY    92  62  35 SW8       30.08F HX  92           
TALLULAH/VBURG FAIR      92  63  38 MISG      30.09F HX  93           
VIDALIA        FAIR      91  68  46 SE8       30.07F HX  95           
$$